Temp
7 8 8 8 8 9 10 11 12 12 12 11 11 12 12 13 13 13 13 14 15 15 16 16 16 16 16 16 16 16 17 17 17 17 16 16 16 16 16 17 17 18 18 18 17 17 16 16 15 15 16 16 16 16 16 16 16 16 16 16 16 16 16
8 8 8 8 8 8 8 9 11 12 12 12 11 11 12 12 13 13 13 14 14 15 16 16 16 17 16 16 16 16 16 16 17 17 17 17 16 16 16 16 17 17 17 17 18 17 16 16 16 15 15 15 15 15 16 17 17 17 17 17 17 17 16
8 8 8 8 7 8 8 8 8 10 11 12 11 11 11 12 12 13 13 14 14 14 15 16 16 16 16 16 16 16 16 16 17 17 17 17 17 17 17 16 16 16 16 16 16 17 16 16 16 15 15 15 15 15 16 16 17 17 17 17 17 17 17
7 7 7 7 7 7 8 8 8 8 9 10 12 11 10 11 11 12 13 13 14 14 14 15 15 16 16 16 16 16 16 16 17 17 17 17 17 17 17 17 17 17 17 17 16 16 16 16 16 16 15 15 15 15 15 15 16 16 16 17 17 17 17
7 6 6 6 7 7 7 7 8 8 8 8 10 11 10 10 10 11 12 12 13 14 14 14 14 15 15 16 15 16 16 16 16 17 17 17 17 17 17 17 17 17 17 18 17 17 17 17 16 16 15 15 15 15 15 15 15 15 15 16 16 16 16
6 6 6 6 6 7 7 7 7 7 7 8 8 9 9 9 9 10 11 11 12 13 13 13 14 14 15 15 15 16 16 16 16 16 17 17 17 17 17 17 17 17 18 18 18 18 18 18 17 16 15 16 16 15 15 15 14 14 14 14 15 15 15
5 5 5 6 6 6 6 7 7 7 7 8 8 8 8 8 9 9 10 10 11 12 13 13 14 14 15 15 15 15 16 16 16 16 16 17 17 17 18 17 17 18 18 18 18 18 18 18 17 16 16 16 16 15 14 14 14 14 13 13 14 14 14
5 5 5 5 6 6 6 6 7 7 7 7 7 7 7 8 8 9 9 10 10 11 12 13 13 14 14 15 15 15 15 16 15 15 16 17 17 17 18 18 18 18 18 18 18 18 18 18 18 17 16 16 16 15 15 14 14 14 13 12 12 13 13
5 5 5 5 5 5 5 6 6 6 6 7 7 7 7 8 8 8 9 9 10 11 11 12 13 13 14 14 15 15 15 15 15 15 16 17 16 17 17 18 18 18 18 18 18 18 19 19 18 18 18 17 16 15 15 14 14 13 13 12 11 11 12
5 5 5 5 5 5 5 5 5 5 6 6 7 7 8 8 8 9 9 9 9 10 11 11 12 13 14 14 14 15 15 15 15 16 16 16 16 17 17 18 18 18 18 18 18 18 18 19 19 18 18 18 17 16 15 15 15 13 12 13 12 11 11
5 5 5 5 5 5 5 5 5 5 5 6 6 7 7 7 8 8 9 9 9 9 10 11 11 12 13 13 14 14 14 15 15 15 16 16 16 17 17 18 18 18 18 18 18 18 18 18 19 18 19 19 18 18 16 16 15 14 13 12 13 12 11
5 5 5 5 4 4 5 5 5 5 5 5 6 6 6 7 7 7 8 9 9 9 10 10 11 11 12 13 13 14 14 14 15 15 16 16 16 17 17 17 18 18 18 18 18 18 18 18 18 18 19 19 18 18 17 17 16 14 13 13 13 13 12
4 4 4 4 4 4 4 4 5 5 5 5 6 6 6 6 7 7 8 8 9 9 10 10 10 11 11 12 13 13 14 14 14 15 15 16 16 17 17 17 17 18 18 18 18 18 18 18 18 18 19 18 18 18 18 17 16 14 13 14 13 13 12
4 4 4 4 4 4 4 4 5 5 5 5 5 6 6 6 6 7 7 8 9 9 10 10 10 10 11 11 12 12 13 14 14 14 15 15 16 16 16 17 17 17 18 18 18 18 18 18 18 18 18 18 18 18 18 17 16 13 12 13 13 13 12
4 4 4 4 4 4 4 4 4 4 5 5 5 5 5 5 6 6 7 8 8 9 10 10 10 10 10 11 11 12 12 13 14 14 14 15 16 16 16 16 16 17 18 18 18 18 18 18 18 18 18 18 18 18 18 17 15 13 11 11 12 12 12
4 4 4 4 4 4 4 4 4 4 4 4 5 5 5 5 5 6 6 7 8 9 10 10 10 10 10 10 11 12 12 13 14 14 14 15 15 16 16 16 16 16 17 18 18 18 18 18 18 18 18 18 18 18 18 17 16 13 11 10 11 11 11
4 4 4 4 4 4 4 4 4 4 4 4 4 4 5 5 5 5 6 6 7 8 9 10 10 10 10 10 11 11 12 13 13 14 14 15 15 15 15 16 16 17 17 17 18 18 18 17 17 17 17 17 18 18 17 17 16 14 11 10 10 11 10
4 4 4 4 4 3 3 3 3 4 4 4 4 4 4 5 5 5 5 6 7 8 9 9 10 10 10 10 10 11 12 13 13 14 14 15 15 15 15 16 17 17 17 17 17 17 17 17 17 17 17 17 17 17 16 17 16 15 13 11 10 10 10
4 4 4 4 4 3 3 3 3 3 3 4 4 4 4 4 4 5 5 6 6 7 8 9 10 10 10 10 10 11 12 13 13 14 14 15 15 16 16 16 17 17 17 17 17 17 17 17 17 17 17 17 16 15 16 15 14 14 14 12 10 9 9
4 4 4 4 4 3 3 3 3 3 3 3 3 3 4 4 4 4 5 5 6 7 8 9 10 10 10 10 10 11 12 12 13 14 14 14 15 16 16 16 17 17 17 17 17 17 17 17 17 17 17 16 16 15 15 15 14 13 13 11 10 9 9
4 4 4 4 4 3 3 3 3 3 3 3 3 3 3 3 4 4 4 5 6 6 7 8 9 10 10 10 10 11 11 12 13 13 14 14 15 16 16 16 16 17 17 17 17 17 17 17 17 17 17 16 15 14 14 14 13 12 11 10 9 9 9
4 4 4 4 3 3 3 3 3 3 3 3 3 3 3 3 3 4 4 5 5 6 7 8 9 10 10 10 10 11 11 12 13 13 14 14 14 15 16 16 16 17 17 17 17 17 17 18 18 17 16 16 15 14 14 13 12 11 10 9 9 9 8
4 4 4 3 3 3 3 3 3 3 3 3 3 3 3 3 3 4 4 5 6 6 7 7 9 10 10 10 10 11 11 12 13 13 13 14 14 14 15 15 16 17 17 17 17 17 18 18 18 18 18 16 15 14 13 12 11 11 10 9 9 8 8
4 4 3 3 3 3 2 2 2 2 2 2 2 3 3 3 3 4 5 5 6 6 7 7 9 10 10 10 11 11 11 12 13 13 13 14 14 14 14 15 15 16 16 16 16 17 18 18 18 18 18 17 16 16 15 13 12 12 11 10 8 8 8
4 3 3 3 3 2 2 2 2 2 2 2 2 3 3 3 3 4 5 6 6 7 7 7 9 10 11 11 11 11 11 12 13 13 13 13 13 13 14 14 15 15 15 16 16 16 17 17 17 17 17 17 16 16 16 16 15 14 12 10 9 8 8
3 3 3 2 2 2 2 1 1 2 2 2 2 2 3 3 4 4 5 6 7 7 7 8 9 10 11 11 11 11 11 12 12 12 12 12 13 13 13 13 14 14 15 15 15 15 16 16 16 16 15 15 15 15 16 16 17 16 14 13 12 10 9
3 3 3 2 2 2 2 1 1 1 2 2 2 3 3 3 4 5 6 7 7 8 8 8 9 10 11 11 11 11 11 12 12 12 12 12 13 13 13 14 14 14 14 14 14 14 15 15 15 14 13 13 13 14 14 14 15 15 15 15 14 12 11
3 3 2 2 2 2 1 1 1 1 1 2 2 3 3 4 5 5 6 7 8 8 8 9 9 10 11 11 11 11 11 11 11 12 12 13 13 13 14 15 14 13 14 14 13 14 14 14 13 12 12 12 12 12 12 12 13 13 13 13 14 13 12
3 3 2 2 2 1 1 1 1 1 1 2 2 3 3 4 5 6 7 8 8 9 9 9 10 11 11 12 11 11 11 11 11 11 11 12 13 14 15 15 14 13 13 13 13 13 14 13 12 12 11 11 11 11 11 11 11 12 13 13 13 13 12
2 2 2 2 1 1 1 0 0 1 1 1 2 2 3 4 5 7 8 9 9 9 10 10 11 11 11 11 12 11 11 11 10 10 10 10 11 13 15 15 14 13 12 12 12 12 13 13 12 12 11 10 10 10 9 10 11 11 12 12 12 12 11
2 2 1 1 1 0 0 0 0 0 1 1 2 3 3 4 5 7 8 9 9 10 10 11 12 12 11 11 11 11 10 10 9 9 9 8 10 12 12 12 13 12 11 12 12 12 12 13 12 12 11 10 9 9 8 8 9 9 10 10 10 9 9
1 1 1 1 0 -0 -0 -0 -0 0 1 1 2 3 3 4 5 7 8 9 10 10 10 11 12 12 11 11 11 10 10 9 8 8 8 8 8 10 10 10 10 10 11 12 13 12 12 13 13 12 12 10 8 6 6 8 8 8 8 8 7 7 7
1 1 1 0 -0 -0 -0 -0 -0 0 1 2 2 3 4 5 6 7 8 8 9 10 10 10 11 11 11 10 10 10 9 9 7 7 7 7 8 8 8 8 9 10 11 12 12 11 12 13 14 13 13 12 9 6 6 8 8 8 8 7 6 6 6
1 0 0 -0 -0 -0 -0 -0 -0 0 1 2 3 4 4 5 5 5 5 6 7 7 8 9 9 10 10 9 9 10 10 9 8 7 7 7 7 7 7 7 7 9 10 9 9 10 11 12 13 13 13 14 12 9 8 8 8 8 8 6 5 5 4
1 0 0 -0 -0 -0 -0 -0 -0 0 0 1 2 2 2 3 3 3 3 4 4 4 5 7 8 8 8 7 8 9 9 9 8 7 7 6 6 6 7 7 7 7 8 8 8 9 10 11 12 12 12 13 12 10 9 8 8 8 6 5 4 4 3
1 0 0 -0 -0 -0 -0 -0 -0 0 0 0 1 1 1 1 1 1 1 2 2 3 4 5 6 6 6 7 7 8 8 8 7 8 7 6 5 5 6 7 7 7 8 8 8 9 9 10 11 11 12 11 10 9 9 8 7 6 4 3 3 3 3
1 0 0 0 -0 -0 -1 -1 -0 -0 0 0 0 1 1 1 1 0 0 0 1 2 3 4 4 5 5 6 7 7 7 6 6 7 7 6 5 5 5 6 7 6 7 8 8 8 8 9 10 11 10 9 9 8 8 6 5 4 3 2 2 2 2
Height
796 794 794 795 794 793 792 790 790 790 791 793 794 796 796 797 797 796 797 797 797 798 799 800 801 802 805 807 809 810 812 815 817 818 820 822 823 826 829 832 834 835 835 836 838 840 843 845 846 847 849 850 851 853 854 856 858 859 860 861 862 862 863
794 794 793 793 792 792 791 790 789 788 788 789 791 792 793 794 794 795 795 795 795 795 796 797 797 799 801 804 806 807 809 812 813 814 817 818 819 821 825 828 831 833 834 835 836 837 839 842 844 845 846 848 850 851 852 855 857 858 860 861 861 862 862
793 792 792 791 790 790 790 789 788 787 786 786 787 788 790 791 791 792 792 792 792 793 793 793 794 796 797 799 802 804 806 808 810 812 813 814 815 818 821 823 826 829 831 833 834 835 837 839 841 842 844 846 848 849 851 853 855 857 858 859 860 861 861
792 792 791 789 788 788 788 787 787 786 785 784 784 784 786 787 788 789 789 789 789 789 790 790 791 793 794 795 797 800 802 804 807 809 810 811 813 815 818 820 821 823 825 828 829 832 834 836 838 840 842 844 847 848 850 852 854 855 857 858 859 859 860
791 791 790 788 787 787 786 785 785 785 784 783 782 781 782 783 785 786 786 786 786 786 787 787 788 790 791 792 793 795 798 800 802 805 806 809 810 812 814 816 818 820 822 824 826 829 831 833 836 838 840 843 846 848 849 851 853 854 855 856 857 858 858
790 789 789 787 786 786 785 783 783 782 782 781 781 780 779 780 781 783 783 783 783 783 784 784 785 786 787 788 789 790 792 795 798 801 803 804 806 807 809 813 815 817 819 821 824 826 828 831 833 836 839 841 843 846 848 849 851 853 854 855 855 856 857
789 788 787 786 785 784 783 782 781 780 779 779 779 778 777 778 778 779 780 780 780 780 781 781 782 783 784 784 785 786 788 790 793 797 799 800 802 803 806 809 812 813 815 818 821 823 825 828 830 833 837 840 842 844 846 848 849 851 853 853 854 854 855
788 787 786 785 784 783 782 780 779 778 777 776 776 776 775 775 775 776 777 777 777 778 778 778 779 780 781 781 782 782 784 786 788 791 794 796 798 800 802 805 807 809 812 814 817 819 822 824 827 829 833 837 841 843 844 846 848 849 850 852 854 854 855
786 786 784 783 782 781 780 778 776 775 774 773 773 773 773 773 773 773 773 773 774 774 775 775 776 777 777 778 778 779 779 781 784 787 789 791 793 796 798 801 803 806 808 810 813 816 818 821 823 826 828 831 836 840 843 844 846 847 848 850 852 854 855
785 784 783 782 781 779 778 776 774 772 771 771 770 770 770 770 770 770 770 770 771 771 771 772 773 773 774 774 774 775 776 777 779 781 784 787 789 792 795 797 800 802 804 807 810 812 815 818 820 822 825 827 830 834 838 841 842 843 846 847 849 852 855
783 782 781 780 779 777 776 775 773 770 769 768 768 767 767 767 767 767 767 768 768 768 768 768 769 770 771 771 771 772 773 774 775 776 779 783 785 788 791 793 796 798 801 804 806 809 812 815 817 819 821 824 825 828 831 834 837 840 843 845 847 849 852
781 780 779 778 776 775 774 772 771 769 767 766 765 764 764 764 763 764 764 765 765 765 765 765 765 766 767 768 768 769 770 770 771 772 776 779 781 784 787 790 792 795 797 800 802 806 809 811 814 816 818 820 822 824 826 829 833 837 839 842 844 847 850
778 778 776 775 774 772 771 770 768 767 765 764 762 761 761 761 761 761 761 762 762 761 761 762 762 762 764 764 764 765 766 767 767 769 772 774 778 781 783 786 789 792 794 796 799 802 805 808 810 812 815 817 819 821 823 826 829 835 838 839 841 845 849
776 775 773 772 771 769 768 767 765 764 763 761 760 759 758 757 757 757 758 758 758 758 758 758 758 759 759 760 761 761 762 763 763 765 767 770 774 777 779 781 785 789 791 792 795 798 801 804 807 809 811 813 815 817 820 823 827 832 837 839 840 843 847
773 772 770 769 768 766 765 764 762 761 760 758 757 756 754 754 753 753 754 754 754 754 754 754 755 755 754 755 756 757 758 759 759 761 763 765 768 772 774 776 780 784 788 789 791 794 797 800 803 805 807 809 812 814 817 820 824 828 834 837 839 841 845
770 769 768 766 764 763 761 760 759 758 756 755 754 753 751 750 749 749 749 749 750 750 750 749 750 750 750 751 752 752 753 754 755 756 757 759 763 767 769 771 775 780 783 785 787 790 793 796 799 801 803 805 808 811 814 817 820 824 830 834 837 839 842
768 766 765 763 761 760 759 757 756 754 752 751 750 749 747 746 746 745 744 744 745 745 745 745 745 745 746 746 747 748 748 750 751 752 752 754 758 761 764 767 770 774 778 780 783 786 789 792 795 798 800 802 804 807 811 814 815 818 824 830 835 837 839
765 763 762 760 758 757 755 754 752 750 749 747 746 745 744 742 741 740 739 739 739 740 741 741 740 740 741 742 743 743 744 745 746 747 749 751 753 756 760 763 766 770 773 775 778 781 785 788 791 794 796 799 801 805 809 812 814 815 818 825 831 836 838
763 761 759 757 755 754 752 750 748 746 745 743 741 740 739 737 736 735 734 733 733 734 735 736 736 735 736 738 738 739 740 741 742 743 745 747 749 751 754 758 762 765 768 770 773 776 780 784 787 790 793 796 799 803 806 809 812 814 816 821 826 831 835
760 758 756 754 752 750 748 746 744 742 740 739 737 735 733 732 730 729 728 728 727 728 729 729 730 730 731 732 734 734 735 736 737 739 741 743 745 747 749 752 756 760 762 766 769 772 776 780 784 786 789 792 796 800 803 806 809 812 814 818 823 827 831
757 755 753 751 749 746 744 742 739 737 735 734 732 730 728 726 724 723 722 721 721 722 722 722 723 724 725 726 728 729 730 732 733 735 737 739 741 743 745 748 751 754 757 761 765 768 772 776 779 783 786 788 792 796 800 802 805 808 811 814 819 824 828
754 752 750 747 745 742 739 737 734 732 730 728 726 724 722 720 718 716 715 715 715 715 715 715 716 717 718 720 722 724 726 727 729 730 733 735 737 739 741 744 747 750 753 758 762 765 768 772 775 778 782 785 788 793 796 798 800 804 809 813 817 821 826
751 749 746 743 740 737 734 732 729 727 724 722 720 718 716 714 712 710 708 707 708 707 707 707 708 710 712 714 717 719 721 723 724 726 728 730 733 735 738 741 744 747 751 755 760 763 766 769 772 774 777 780 784 787 791 795 798 801 805 809 813 817 821
749 746 742 739 736 732 729 727 724 721 718 716 714 712 710 707 705 703 702 701 700 700 699 700 702 705 706 709 712 714 716 718 720 721 723 725 728 731 734 738 740 744 749 753 758 761 764 766 768 771 773 775 778 781 784 789 795 799 802 805 809 813 815
746 742 739 735 732 728 725 721 718 715 712 710 707 705 703 700 698 696 695 694 693 693 693 694 697 699 701 704 707 710 712 713 715 716 718 720 723 727 731 734 737 742 746 750 754 758 761 763 765 768 772 774 776 778 779 781 785 789 793 798 805 810 813
743 739 736 732 728 724 720 716 713 709 706 703 701 698 695 693 691 689 688 687 686 686 687 688 691 693 696 699 703 705 708 709 710 711 713 716 719 723 726 730 733 738 743 747 751 754 757 760 762 766 771 774 776 779 779 780 781 783 785 790 797 803 807
739 735 732 728 724 720 716 711 707 703 700 697 694 691 688 685 684 682 681 680 680 680 681 682 685 688 691 694 698 701 704 706 707 708 710 712 716 719 722 725 730 734 739 743 746 750 754 756 759 764 768 772 776 778 779 781 783 785 787 790 793 797 802
736 732 728 725 721 716 711 706 701 697 694 690 688 685 682 679 677 675 675 674 674 674 675 677 680 683 686 689 693 697 700 702 704 706 707 708 711 715 717 721 726 731 735 738 742 746 750 752 756 761 766 770 775 777 778 781 783 785 788 791 794 797 801
734 729 725 721 717 712 707 701 696 692 688 684 681 678 676 673 671 670 669 669 669 669 670 672 675 678 681 685 689 693 697 699 701 704 705 705 707 711 714 717 723 729 732 735 739 744 747 750 754 760 764 768 772 775 778 781 784 786 789 792 796 799 803
732 727 723 719 713 708 703 697 692 688 683 678 675 671 669 667 665 665 664 663 663 664 665 667 670 674 677 680 685 689 692 695 698 701 704 705 704 707 712 715 720 726 730 733 737 741 745 748 752 757 762 767 770 773 777 781 784 787 790 793 797 802 806
731 726 721 716 710 705 700 694 688 684 679 674 669 665 663 662 661 660 659 658 658 660 661 663 666 669 673 676 680 683 687 691 695 698 702 704 703 705 710 715 719 724 728 731 735 739 743 746 749 753 758 763 767 772 776 780 782 786 791 795 799 804 809
730 725 719 713 708 703 697 691 685 680 674 669 663 659 658 658 656 655 654 654 654 655 657 659 661 665 669 672 675 679 684 688 692 695 699 702 703 706 711 715 719 723 728 732 735 738 742 744 745 749 753 758 764 770 775 778 780 784 790 795 800 805 809
729 723 717 712 707 701 695 689 682 677 671 664 657 653 653 653 652 650 650 650 651 653 654 655 658 662 666 669 671 675 680 684 688 691 695 699 702 706 712 716 720 724 729 732 733 736 740 742 742 744 748 752 758 767 773 777 780 784 789 795 800 805 809
728 722 716 711 705 699 692 686 681 675 668 660 654 650 649 649 648 648 648 649 651 652 652 654 656 659 664 667 669 672 676 681 685 688 693 697 700 704 710 715 720 724 728 731 733 736 739 741 741 742 745 747 753 761 769 775 780 784 789 794 800 806 810
727 722 716 709 703 696 690 685 680 675 668 661 657 653 650 648 647 648 649 651 652 652 652 653 656 659 663 667 669 671 675 679 683 687 691 696 700 703 708 714 719 723 726 730 734 738 741 743 745 746 747 749 753 760 767 772 778 784 789 796 802 807 812
727 721 715 708 701 695 690 685 680 676 669 664 662 659 655 652 650 651 652 653 654 654 654 655 657 660 664 667 669 672 675 679 684 686 689 693 699 704 709 713 718 723 725 729 734 739 742 744 746 748 750 752 756 761 766 772 778 784 791 798 803 808 813
727 722 716 709 702 697 692 686 681 678 673 668 667 665 661 658 656 655 656 656 656 656 656 657 659 662 665 668 670 673 677 682 686 689 690 693 698 703 709 713 718 723 726 729 735 740 742 743 745 747 751 754 758 762 767 773 780 786 792 799 803 808 814
Wind_Speed
20 24 24 20 18 18 18 20 20 21 20 19 16 13 11 13 13 14 15 17 21 24 26 29 30 30 31 34 35 38 38 36 36 34 30 30 29 28 31 31 27 18 13 15 17 12 4 2 9 15 19 22 23 24 21 18 16 16 15 15 15 16 16
22 24 25 24 20 18 19 20 20 21 21 20 18 16 13 13 15 16 16 17 20 23 27 29 31 32 33 34 34 36 36 35 38 37 32 33 33 30 30 31 28 22 16 15 19 19 9 4 4 5 12 15 17 22 23 20 18 17 16 15 15 16 16
24 25 25 25 23 19 18 18 19 21 22 21 20 18 16 14 14 16 18 19 19 21 25 28 30 32 34 36 36 37 37 36 37 36 34 35 36 33 33 33 29 24 18 12 15 19 12 7 5 4 11 13 10 15 20 21 20 18 18 16 15 17 17
23 24 24 24 24 22 20 18 18 19 20 21 21 21 19 16 16 16 18 20 20 20 23 26 28 30 32 35 37 38 40 39 38 36 35 35 34 34 35 35 33 30 25 17 17 21 14 8 6 4 10 13 11 12 14 17 19 18 17 17 16 17 17
21 22 23 23 23 22 21 19 17 17 17 18 20 21 21 18 18 18 19 20 22 22 22 25 27 29 30 33 36 38 40 42 41 37 33 32 32 34 35 37 36 33 32 27 23 24 21 16 12 6 8 13 10 9 12 13 14 15 16 16 16 17 17
18 19 21 22 22 21 20 20 19 17 16 17 18 20 21 20 19 20 21 22 23 23 22 23 25 27 29 32 35 38 40 42 43 41 36 35 35 36 36 36 35 34 34 32 27 25 24 23 18 10 11 15 12 8 10 14 13 11 12 15 16 17 17
18 18 18 19 21 21 21 22 22 20 19 19 19 20 22 21 20 20 22 24 24 24 24 24 24 24 27 31 34 38 41 42 43 43 42 39 36 36 36 35 35 36 36 34 31 29 26 25 22 15 12 12 12 11 9 12 15 11 9 11 14 16 17
19 19 18 18 19 21 22 23 24 24 23 23 22 22 23 22 21 21 22 24 25 26 27 26 25 24 26 29 33 37 40 41 42 42 43 41 37 36 36 36 37 36 35 34 34 32 29 27 26 24 19 10 6 8 7 9 13 12 11 11 10 14 17
19 19 19 19 20 21 23 25 28 28 27 27 25 24 23 21 21 21 22 24 25 27 28 28 28 26 25 27 31 34 37 39 41 42 42 42 41 39 39 38 37 35 35 35 35 33 31 29 28 28 27 19 10 6 5 7 8 8 13 15 10 10 17
19 20 21 22 22 22 23 24 27 28 27 27 25 24 23 22 21 20 21 23 25 26 28 30 29 28 27 27 29 32 34 37 40 42 43 42 41 40 40 40 38 36 35 35 35 35 32 31 29 29 30 28 21 11 5 7 7 7 12 16 13 12 16
20 21 23 24 24 23 23 23 24 25 26 25 25 25 24 23 21 20 21 23 25 26 28 30 30 29 28 28 29 31 33 36 37 39 41 42 41 40 39 39 39 36 35 36 36 36 33 32 31 30 30 32 30 22 11 7 7 10 16 16 15 17 20
20 22 24 25 26 25 24 24 24 25 26 24 24 24 24 24 23 21 22 23 25 26 28 30 30 29 28 28 29 29 31 35 37 37 39 41 40 39 38 38 37 36 35 36 37 35 34 33 31 31 31 32 34 31 24 14 7 10 19 20 17 19 23
21 23 24 26 27 26 25 24 24 25 25 24 23 23 23 24 24 23 22 23 25 27 28 30 31 30 28 28 29 29 29 32 36 39 40 41 41 39 37 36 35 36 36 36 36 36 35 34 32 32 32 32 34 33 30 21 10 8 16 24 23 20 23
23 24 25 26 27 27 27 25 24 25 24 24 24 24 24 24 24 25 24 24 26 28 29 30 31 31 30 29 29 29 29 31 34 38 39 41 42 40 39 38 36 37 38 37 37 36 36 35 34 33 33 34 34 33 30 23 15 11 11 19 25 23 26
24 25 26 26 27 27 27 26 25 25 25 25 25 25 26 25 25 27 28 28 29 30 31 31 31 32 32 31 30 30 30 31 34 37 37 39 40 40 40 41 40 39 39 39 38 37 37 36 34 34 35 35 33 32 31 27 20 16 15 18 24 26 29
25 26 26 26 27 27 27 27 26 25 26 25 25 25 26 26 27 27 29 30 31 31 32 32 32 32 32 32 31 31 31 31 32 35 38 39 40 39 39 41 42 42 40 40 39 39 38 37 35 34 34 36 36 32 30 30 27 22 20 21 26 30 32
26 27 27 27 27 27 27 28 27 26 26 27 26 25 26 27 27 28 29 31 31 32 33 34 33 32 33 33 32 32 32 32 33 35 38 41 41 40 39 40 42 42 41 40 40 39 38 36 35 34 33 35 39 34 29 30 33 31 27 24 25 31 34
26 26 26 27 28 28 28 28 27 27 27 28 28 27 27 28 28 30 31 32 32 33 34 35 34 33 33 34 33 33 33 33 34 36 38 41 42 42 41 42 44 43 41 41 40 39 38 36 35 34 33 34 36 35 32 30 33 35 33 29 26 27 31
25 26 27 27 28 29 28 28 28 28 28 29 29 29 28 29 29 30 32 32 33 34 35 36 37 35 34 34 35 35 35 34 35 36 39 41 43 44 45 45 45 43 41 41 41 39 38 37 35 32 33 34 35 35 34 32 32 34 35 33 31 30 31
25 26 27 28 29 29 29 29 30 30 30 30 30 30 30 30 30 31 32 33 34 35 36 37 38 37 35 35 35 36 36 35 35 37 39 41 43 44 45 46 45 44 43 42 42 41 38 37 36 34 33 35 36 36 35 34 33 33 34 33 31 30 31
26 27 28 29 30 31 31 31 31 31 32 31 31 31 31 32 33 33 33 34 34 35 36 37 38 38 35 35 36 37 37 37 36 37 39 41 43 45 45 45 46 46 45 44 43 43 41 39 38 36 35 36 38 37 37 36 35 34 34 33 30 30 30
27 27 28 30 32 33 32 32 32 32 33 33 32 32 32 34 34 34 35 36 36 36 37 39 40 38 36 35 36 37 38 38 38 37 39 41 42 45 44 43 44 45 45 45 45 44 43 42 40 38 36 37 39 39 38 37 35 34 32 30 28 29 28
27 27 29 31 33 33 32 32 33 33 33 34 33 33 33 34 34 35 37 37 37 39 40 41 41 39 37 35 35 36 37 38 39 39 39 40 41 42 43 42 44 45 44 45 45 44 45 44 43 42 40 40 41 42 39 36 35 36 35 31 30 32 29
27 27 30 32 32 33 33 33 33 33 34 34 34 34 34 34 34 35 38 38 38 39 41 42 41 40 39 37 36 37 36 37 39 39 40 41 41 41 41 41 43 43 43 44 44 43 43 44 43 42 42 44 46 47 45 41 38 37 35 30 30 32 30
27 28 31 32 32 33 33 33 33 34 33 33 33 33 33 33 34 35 36 37 38 39 41 42 41 40 39 38 38 38 37 37 38 38 40 41 42 42 42 41 41 41 41 42 42 42 41 41 40 39 40 43 47 48 49 48 46 43 40 35 32 31 31
28 30 31 32 32 33 33 33 33 33 33 32 31 32 32 33 34 34 35 37 38 38 40 40 40 40 40 39 40 40 39 37 36 37 40 41 42 44 44 42 41 40 39 38 38 39 39 37 35 36 38 41 43 44 45 46 46 46 45 42 40 39 38
30 31 31 32 32 32 33 33 33 33 32 31 30 30 32 32 33 33 34 36 38 39 40 40 40 40 41 40 41 41 40 36 34 37 42 43 44 45 46 44 41 40 39 37 36 37 38 38 37 37 38 38 38 38 38 38 39 40 40 40 41 42 42
30 31 31 31 31 31 32 33 33 32 31 30 29 29 30 30 31 32 33 34 37 38 39 39 39 40 41 41 42 43 40 35 34 38 42 46 48 48 48 46 43 41 40 38 36 37 39 40 40 39 37 36 34 32 32 32 34 35 36 35 36 38 39
30 31 31 30 30 30 31 32 32 32 30 30 29 28 28 29 30 31 32 34 36 37 37 38 39 39 41 41 42 43 40 36 35 36 38 43 47 48 48 47 44 42 41 39 37 39 41 42 41 40 37 34 31 29 27 25 26 28 30 31 29 30 32
31 31 30 29 30 31 32 33 32 31 29 29 30 29 30 30 30 30 32 34 35 34 34 36 36 36 40 43 43 41 38 35 35 36 36 38 43 46 46 47 47 44 41 41 40 41 43 44 43 42 39 35 32 29 25 22 21 22 24 25 24 24 26
30 31 29 29 30 32 33 33 31 30 29 30 32 32 31 30 31 31 30 32 33 32 31 30 28 29 37 43 42 39 37 35 35 37 35 32 37 42 42 43 46 44 42 44 45 45 46 47 47 46 43 39 35 32 30 27 26 25 24 24 25 26 26
30 29 29 29 30 32 33 32 30 29 30 30 31 33 32 30 30 29 27 29 31 30 28 26 23 25 34 43 42 37 37 36 35 35 35 32 32 36 37 37 41 43 43 46 47 47 48 50 50 48 46 43 40 37 35 35 36 37 35 34 33 31 28
30 28 28 29 30 32 33 32 30 29 28 27 26 28 28 22 16 13 15 20 24 24 24 24 23 24 32 40 41 39 39 39 37 37 37 36 35 34 33 35 39 43 46 49 50 50 50 51 52 51 49 47 45 42 41 41 41 41 40 38 35 32 30
29 27 28 29 30 31 32 31 28 26 26 26 18 9 10 12 13 13 12 12 14 16 19 22 23 25 30 36 39 40 41 41 40 40 39 38 38 38 37 37 39 43 47 48 48 48 48 48 50 50 49 49 49 47 46 44 42 40 40 38 36 34 31
28 28 29 32 31 32 33 31 27 26 29 29 22 11 13 19 20 19 17 14 13 12 15 20 23 26 30 34 37 38 40 41 42 42 40 36 37 39 40 40 41 43 47 47 44 42 43 44 45 45 44 47 50 49 47 46 43 42 41 40 38 35 32
27 28 31 35 33 32 33 30 26 27 31 31 25 20 16 17 20 21 20 18 17 16 17 19 23 26 29 33 35 35 35 37 40 44 43 39 38 38 39 41 43 44 46 45 42 40 42 43 43 43 44 48 50 49 48 47 45 44 43 40 39 37 33
25 28 31 35 35 33 33 31 26 26 29 30 25 21 18 17 17 19 20 20 20 20 20 20 22 25 27 30 32 32 32 33 37 40 42 41 40 40 40 42 43 42 42 42 40 39 40 41 42 45 48 50 49 48 48 47 45 44 42 39 37 36 34
Wind_Direction
288 291 297 302 303 302 299 300 304 306 308 309 308 304 283 262 255 255 255 250 244 242 238 234 233 230 223 215 210 208 208 205 203 203 200 194 195 201 205 207 208 208 198 194 199 192 164 188 216 226 234 238 239 235 231 228 226 222 214 203 197 198 199
290 291 296 300 300 299 298 299 299 298 300 302 303 305 298 278 260 251 250 250 245 241 240 238 234 229 223 218 213 209 206 205 205 206 202 199 199 199 199 203 207 206 200 199 202 197 185 173 187 209 219 226 237 235 232 227 223 222 217 209 205 205 204
292 294 297 298 298 299 299 299 300 298 296 295 296 300 299 291 276 260 253 251 247 242 239 238 235 230 223 219 218 213 208 207 208 207 205 204 203 201 200 200 202 203 198 193 196 195 190 186 190 196 201 201 212 227 230 226 222 221 219 216 214 212 207
290 293 295 295 296 297 298 297 298 298 298 294 292 294 296 295 289 275 261 253 250 247 241 239 238 235 226 220 218 215 212 210 208 207 207 206 203 202 203 203 203 203 202 199 196 192 188 181 177 188 199 197 200 212 220 222 220 220 220 220 218 215 211
286 288 289 289 291 293 295 296 296 296 298 297 293 292 292 294 294 287 275 260 251 248 244 241 240 239 233 224 218 214 212 212 209 207 208 207 203 201 204 207 207 207 207 209 206 198 197 195 185 178 185 187 194 205 203 203 205 209 213 217 218 218 214
283 283 284 285 285 288 290 291 293 292 292 293 293 292 289 290 292 290 285 273 259 251 248 245 242 242 239 230 221 215 212 212 210 210 211 209 207 205 205 207 208 210 211 212 211 208 207 201 191 181 180 184 184 179 183 186 182 183 197 208 213 215 212
283 282 280 281 282 283 285 286 288 288 287 288 288 288 287 287 287 285 284 280 271 260 255 253 248 244 242 235 225 217 214 213 211 211 213 212 210 209 207 207 208 211 212 210 212 214 210 201 192 179 168 177 183 171 166 180 181 175 177 194 207 209 205
288 285 280 280 281 282 283 283 282 282 283 283 283 284 285 284 282 281 279 278 275 269 261 258 254 249 245 239 229 220 217 215 212 211 213 212 212 212 209 209 211 211 211 209 211 214 212 206 200 189 175 162 175 176 163 171 181 187 182 177 194 205 199
294 291 286 283 284 284 284 282 281 280 280 281 281 282 283 282 281 279 276 274 273 271 266 261 258 253 250 245 235 225 218 216 215 214 214 214 214 215 213 211 211 211 211 209 210 213 215 213 209 200 188 178 176 177 175 176 176 185 186 178 174 195 197
300 298 295 293 292 290 288 284 283 283 281 280 279 278 277 277 278 277 275 274 271 269 268 264 260 255 251 248 242 232 222 217 215 215 215 215 215 215 214 212 212 212 211 209 210 213 216 216 212 205 198 192 188 180 176 193 186 170 181 186 179 178 188
307 305 302 301 299 294 290 285 283 283 282 280 277 275 274 272 272 272 271 272 271 268 267 265 263 257 250 247 244 238 230 222 217 215 215 215 215 214 213 213 212 211 210 209 211 213 214 216 212 207 205 202 197 192 186 189 194 177 173 182 191 188 183
308 308 305 304 301 296 291 287 285 284 283 282 277 274 274 272 271 270 269 270 269 267 266 264 262 259 251 246 243 240 234 227 220 216 215 214 213 213 212 211 210 210 209 209 211 212 213 215 213 208 207 204 201 199 195 187 188 185 179 181 190 194 185
308 307 306 304 301 297 294 290 288 286 284 283 279 275 274 272 271 270 268 267 267 266 264 262 261 259 253 248 244 241 236 230 222 218 216 215 214 212 209 206 208 211 210 210 211 212 213 214 213 210 208 205 203 203 199 192 178 163 181 188 188 187 183
309 308 306 305 301 298 296 293 290 288 285 281 279 277 274 271 270 269 267 266 265 264 262 261 259 258 255 250 246 243 239 232 224 218 216 215 214 212 208 205 209 214 212 211 211 212 214 215 214 212 210 207 205 204 201 195 176 145 159 184 185 181 178
309 309 307 305 302 299 297 295 293 289 286 282 279 276 273 270 268 267 265 264 263 262 260 258 257 256 254 251 246 242 239 234 227 219 215 214 212 211 207 204 210 216 214 212 213 213 215 216 215 213 211 209 206 205 203 196 177 154 149 166 174 173 174
309 308 306 303 302 300 298 297 294 290 287 283 280 276 272 269 266 265 264 262 262 262 260 256 254 253 251 250 245 241 237 234 229 221 215 214 212 210 206 203 208 214 213 213 214 215 216 217 216 214 212 210 209 206 204 198 185 166 152 157 168 168 168
307 306 305 303 302 300 298 297 294 290 287 285 281 277 273 268 263 261 260 259 259 260 260 258 253 250 248 247 244 240 236 233 229 223 216 213 211 209 207 206 209 211 210 211 213 215 216 217 216 214 210 210 210 206 203 202 195 179 159 153 166 169 168
305 304 303 301 301 300 298 296 293 290 287 284 281 278 273 268 262 258 256 256 255 254 255 256 254 250 247 245 243 239 235 231 229 225 219 215 210 207 206 206 209 210 208 209 212 214 215 216 216 213 208 206 206 203 204 204 195 182 168 158 160 166 168
303 303 301 300 299 299 297 294 291 288 285 282 279 276 272 266 261 258 255 253 252 250 249 250 251 250 246 242 240 238 234 231 229 225 220 216 211 207 206 206 208 210 209 209 211 213 214 214 213 209 205 203 201 201 202 200 189 178 171 164 159 160 167
303 301 300 299 298 297 295 292 289 286 283 279 276 273 269 264 260 258 255 252 250 249 246 245 246 245 242 239 236 235 233 230 228 225 221 216 211 207 206 207 208 209 210 211 213 213 213 212 211 210 207 202 199 198 197 193 185 175 167 161 159 161 165
303 301 300 300 298 295 293 290 287 285 282 278 274 270 266 264 261 257 254 251 249 247 245 243 242 240 238 235 232 231 231 229 228 225 221 216 212 208 207 207 208 210 211 213 216 216 214 212 211 210 207 203 198 193 189 185 178 171 164 158 158 161 162
303 301 301 300 298 294 292 289 287 284 281 277 274 271 266 264 262 258 254 251 248 246 244 241 238 236 233 230 228 228 228 227 226 224 220 216 212 209 208 207 208 211 214 215 218 218 216 215 213 209 203 197 192 187 183 180 171 162 157 154 155 160 161
302 300 301 300 297 294 292 290 288 284 280 276 273 270 267 264 261 258 256 252 247 245 244 240 237 233 230 228 225 224 225 224 223 221 217 213 210 207 207 207 208 211 215 217 218 219 219 219 219 216 209 199 191 184 178 172 166 162 160 160 162 164 165
301 301 302 300 296 295 294 292 290 286 281 277 273 269 266 263 261 259 257 253 246 243 242 239 235 231 229 228 225 222 221 221 220 218 213 209 206 203 203 205 207 209 213 216 217 219 220 218 218 217 214 207 200 193 185 174 169 169 170 168 168 170 170
303 303 302 300 298 297 296 294 291 288 283 279 275 270 266 263 261 260 257 252 246 242 241 238 232 228 227 228 226 222 219 219 218 212 206 202 199 198 199 202 203 206 211 213 214 216 215 213 211 208 207 205 200 197 195 189 183 181 177 169 168 174 177
307 305 303 302 300 299 297 295 293 291 287 284 278 273 270 266 263 261 255 249 243 240 239 235 229 226 225 226 226 221 219 219 215 205 198 194 192 192 194 195 197 202 208 209 208 209 206 201 197 194 193 193 191 192 195 195 193 193 188 179 178 182 185
309 306 305 304 301 300 298 296 296 294 291 287 281 276 274 270 266 262 255 245 239 236 235 231 225 222 223 225 224 220 218 217 210 199 193 190 190 191 191 192 194 198 202 204 202 201 197 189 183 181 181 182 184 188 190 191 192 195 193 189 189 188 188
313 310 308 306 303 301 300 299 298 296 294 288 282 279 276 273 269 263 254 242 234 232 232 228 221 219 221 223 223 218 215 212 205 197 192 190 191 192 192 194 197 197 198 200 198 194 190 183 174 171 170 171 175 179 180 183 188 191 191 192 193 190 188
318 314 312 308 306 304 303 302 300 298 294 288 282 278 275 273 271 264 255 243 233 230 228 222 217 217 219 220 219 217 212 206 200 196 192 189 189 191 193 196 199 200 198 196 193 192 188 179 169 163 161 160 163 166 166 173 182 188 190 190 191 190 185
323 320 316 312 310 310 310 307 302 298 293 287 284 279 274 273 272 266 254 241 230 224 219 212 210 214 217 215 214 212 206 197 192 190 190 187 185 187 192 197 199 199 196 191 188 185 184 178 168 162 156 151 151 151 149 156 166 173 180 180 177 176 172
328 324 319 317 316 316 315 311 304 299 296 290 284 278 272 270 271 267 252 236 224 215 207 203 204 212 216 213 210 204 195 187 181 181 182 181 179 181 187 193 196 195 189 185 181 178 179 176 167 160 155 148 144 140 138 143 146 146 149 151 149 150 151
332 328 324 322 322 322 321 317 312 308 303 294 283 276 271 267 265 261 247 230 219 211 204 201 202 211 215 211 202 192 184 178 173 171 172 170 169 174 180 185 189 188 184 182 180 177 178 176 168 161 157 148 138 135 138 141 139 136 136 135 136 139 140
336 333 330 327 327 329 329 328 323 318 315 309 293 274 261 251 238 222 212 208 205 206 207 203 200 208 213 205 194 184 179 175 170 166 166 164 161 164 170 174 178 182 182 181 179 176 176 176 170 163 160 153 144 139 140 140 138 138 136 134 134 136 136
342 340 337 335 335 337 340 339 334 330 336 341 330 275 198 161 135 123 132 158 177 192 201 198 196 203 204 195 187 183 180 177 173 167 163 162 161 159 162 166 171 176 176 174 172 170 171 173 169 163 161 158 152 147 143 140 138 139 137 133 133 133 133
350 348 347 348 347 346 349 349 347 350 1 7 8 33 95 103 101 98 101 113 129 150 172 182 186 190 190 184 180 179 179 178 176 169 161 159 160 160 161 162 163 167 167 165 165 166 166 166 163 160 158 154 149 148 145 141 139 138 135 133 132 131 131
357 354 355 358 358 357 356 355 356 5 14 17 15 20 47 75 87 88 87 92 102 119 141 161 170 174 177 177 174 173 175 175 173 170 164 159 157 157 158 157 158 161 162 161 162 163 163 162 161 157 154 149 146 146 144 140 138 136 133 132 132 131 132
1 360 1 4 5 5 3 1 1 10 20 23 17 14 28 51 70 78 80 82 89 104 122 140 154 162 168 171 170 170 170 168 168 168 163 156 153 153 153 154 156 159 159 158 159 161 161 160 156 152 149 146 145 144 141 138 137 135 132 132 132 132 134